Presure
335 340 330 335 343 353 372 521 451 472 298 249 156 197 183 144 147 181 182 196 92 90 90 87 97 95 84 101 179 172 118 125 137 116 143 149 151 155 156 153 155 97 134 151 156
292 311 326 330 326 344 352 369 406 412 483 420 286 226 190 137 159 173 176 182 132 88 95 90 92 87 93 99 122 159 141 136 134 100 139 143 148 149 148 149 169 156 158 150 104
270 300 306 311 324 328 340 365 368 382 435 401 386 279 192 188 139 159 98 115 180 91 92 119 140 93 93 122 99 100 185 110 128 146 109 142 141 145 126 144 103 97 126 115 145
281 260 292 304 310 324 330 322 326 331 352 401 412 272 239 200 191 110 182 91 172 158 90 119 89 95 97 100 94 100 108 96 103 97 100 116 99 145 106 137 125 140 136 138 104
286 255 272 286 314 331 322 313 320 333 352 401 352 313 315 168 188 185 190 101 104 81 175 88 87 90 131 97 100 136 96 177 94 96 95 99 96 100 132 97 99 100 94 122 113
290 276 295 262 301 348 327 323 330 359 320 310 309 305 274 238 204 183 170 82 175 106 174 155 171 90 91 95 91 90 98 91 98 117 103 196 95 94 99 102 124 94 125 94 93
328 286 293 276 313 185 330 314 291 295 306 304 292 334 298 282 217 195 184 156 124 180 177 180 173 183 96 94 92 90 100 96 94 95 87 96 70 93 97 98 102 104 106 105 178
308 273 294 280 296 331 348 293 295 284 288 294 294 302 324 250 237 208 193 184 139 73 75 78 88 159 186 180 93 110 92 92 99 92 93 101 99 88 94 101 86 106 106 192 90
315 301 275 285 278 290 341 294 299 295 290 173 235 269 284 209 266 212 196 181 189 166 123 121 178 179 169 180 183 183 176 183 132 88 101 101 88 91 100 77 100 102 98 163 87
312 309 286 295 289 271 289 314 297 284 288 297 298 269 314 326 357 245 186 195 179 188 154 180 180 180 182 176 177 184 188 76 102 104 144 157 174 184 182 101 177 187 99 69 88
332 323 308 296 291 284 282 285 292 307 281 128 284 298 161 335 228 127 220 196 192 191 175 180 131 177 183 187 176 84 83 82 81 74 173 82 81 194 151 183 87 186 76 82 87
315 324 308 326 320 295 291 277 291 299 306 294 149 291 286 302 213 297 130 145 178 188 189 176 174 175 178 177 184 179 106 83 84 184 184 123 137 78 105 115 89 88 165 90 156
237 314 323 209 316 292 295 300 308 297 290 235 327 304 316 279 359 350 237 214 197 197 187 189 186 179 178 182 181 175 175 186 175 183 186 185 186 179 113 122 80 84 146 105 187
263 320 288 131 154 304 289 306 304 299 306 309 308 299 291 276 337 283 144 215 195 190 188 190 184 187 187 184 183 186 176 184 172 184 162 155 152 81 162 155 192 195 172 159 198
227 247 125 310 273 137 158 275 291 296 296 301 294 294 334 134 249 202 272 200 216 198 196 192 177 165 169 176 165 178 162 174 187 168 184 182 185 147 174 192 177 198 206 202 153
202 224 238 289 296 168 281 279 291 282 275 296 253 303 294 213 204 255 275 263 223 206 194 193 199 196 182 188 190 187 183 179 168 168 183 150 158 188 165 188 189 174 191 191 202
192 198 218 226 290 283 130 277 263 229 280 271 277 220 281 243 145 254 286 258 205 209 203 194 188 187 187 159 172 179 184 171 181 185 146 178 173 167 186 184 160 192 199 201 210
219 189 194 213 216 244 291 256 281 276 267 134 169 128 262 284 284 290 290 261 253 138 136 202 194 142 193 154 188 179 127 148 186 164 139 176 167 183 183 176 203 201 202 218 257
182 168 214 193 204 214 217 280 279 275 281 281 206 189 147 252 262 161 103 255 250 236 148 215 207 200 140 191 194 192 188 194 202 161 166 146 149 175 198 205 199 214 270 313 204
211 156 181 183 190 196 204 211 214 258 283 271 262 242 283 199 189 228 272 260 257 218 242 219 208 134 199 141 171 156 177 163 176 177 203 204 205 198 200 224 302 324 282 277 297
186 197 189 201 207 184 184 191 200 207 206 216 185 271 232 265 127 180 256 260 229 204 247 244 169 207 156 228 194 200 152 148 205 220 214 200 207 282 311 308 286 297 348 350 284
155 215 193 183 197 178 214 184 182 189 191 198 204 205 209 232 276 260 139 139 140 139 139 251 194 225 225 224 220 217 214 214 214 296 309 326 265 273 286 274 234 226 236 226 216
198 209 187 163 198 183 198 192 176 181 178 183 187 188 190 196 199 202 218 225 231 271 269 181 277 271 287 271 305 306 297 328 272 236 234 234 229 230 221 208 198 201 191 188 183
214 182 214 211 207 170 198 183 172 191 183 176 176 175 179 177 182 184 183 185 192 192 198 206 213 216 220 220 219 219 219 219 219 217 205 199 194 193 180 178 186 190 188 187 183
185 220 217 163 204 194 154 169 200 174 181 194 169 164 177 172 174 177 177 176 177 177 176 176 177 175 176 177 178 178 180 179 178 177 175 181 174 188 173 172 171 174 172 177 190
218 208 208 214 193 207 211 215 147 154 158 203 186 182 194 170 193 192 190 173 187 170 169 172 180 175 175 175 176 177 177 180 181 179 177 176 173 172 179 187 182 176 170 179 181
183 213 227 160 213 219 215 215 154 183 208 204 150 152 181 188 195 177 175 172 182 191 192 193 169 173 185 194 186 178 179 184 177 178 181 193 181 178 190 170 172 167 169 190 190
Wind_Speed
15 8 11 15 21 30 33 21 41 53 106 102 67 95 90 59 64 80 75 72 29 27 24 21 26 24 14 26 60 60 34 40 47 32 46 49 48 46 46 46 47 21 35 39 46
28 24 19 15 11 15 14 13 13 32 36 65 111 100 96 55 71 82 76 74 53 27 31 23 24 21 25 25 32 50 44 50 46 25 49 50 49 48 46 47 48 49 48 47 25
27 32 24 28 17 12 5 8 14 20 29 51 77 111 102 98 60 72 37 42 75 32 31 41 45 29 27 36 23 23 63 30 43 54 28 50 48 49 39 48 25 23 36 32 41
30 24 31 28 23 19 13 17 18 23 29 44 62 114 108 100 94 46 86 31 73 60 30 46 26 31 31 32 25 25 30 27 30 24 25 35 24 53 28 47 40 47 44 45 28
31 17 25 35 30 24 18 23 18 30 32 42 73 86 98 68 88 88 89 38 40 24 70 28 26 27 45 31 32 43 30 52 27 27 26 28 27 29 46 28 29 30 27 35 30
26 27 27 30 35 18 25 24 32 31 67 58 69 86 112 110 99 86 72 19 76 41 71 59 63 33 31 34 30 26 34 28 31 42 32 54 31 28 32 33 46 30 43 29 29
21 30 27 38 34 6 28 62 48 35 63 63 78 48 100 109 98 91 85 67 46 78 71 72 67 69 41 39 34 31 39 35 32 33 21 36 13 30 35 38 37 38 38 40 55
33 39 32 36 38 26 30 43 51 48 50 60 71 61 55 89 104 93 88 83 58 20 17 19 23 55 66 62 39 44 35 33 40 25 34 43 42 25 32 24 27 42 42 52 33
31 27 36 28 34 36 30 22 54 54 50 28 46 52 76 58 105 94 89 74 84 67 46 41 67 63 51 61 62 60 57 58 43 32 44 45 34 37 44 21 42 44 44 50 19
43 35 29 24 21 30 30 31 39 42 44 48 45 45 52 63 55 104 80 89 68 82 66 72 70 67 65 55 53 62 61 25 31 33 34 46 42 47 54 37 49 57 27 20 42
42 37 35 28 21 20 22 28 23 34 38 27 47 48 39 46 65 33 98 86 84 84 58 73 50 63 67 67 51 37 36 36 35 22 40 35 34 63 43 52 42 59 30 39 45
58 42 34 31 24 26 25 21 22 24 28 32 18 45 49 40 42 84 38 44 69 80 81 57 49 52 58 53 63 54 46 41 43 55 57 49 50 23 34 50 47 46 64 51 59
44 56 41 25 43 37 29 29 26 25 22 19 31 40 39 57 49 60 94 92 81 83 75 78 75 62 58 65 61 43 40 65 43 58 61 61 63 46 34 39 35 44 63 52 63
79 54 64 12 15 40 42 41 34 26 27 28 36 33 34 51 51 52 43 82 78 76 74 81 68 73 72 67 61 70 40 59 35 61 55 39 38 39 54 50 71 68 57 58 78
72 80 7 48 62 12 11 37 41 36 32 30 32 32 35 23 45 43 82 59 89 82 79 78 47 29 26 47 28 50 36 42 74 32 65 66 66 54 59 77 56 78 82 80 58
57 68 75 59 48 19 45 45 42 41 29 31 25 29 32 35 31 43 73 80 86 85 73 72 79 78 58 75 79 76 70 57 33 43 63 46 50 81 57 69 70 60 71 71 82
47 52 61 68 52 52 8 38 39 25 31 28 21 21 31 30 33 40 64 74 55 81 83 72 66 65 68 40 60 69 69 56 68 65 45 59 47 57 70 68 56 78 82 83 86
52 42 46 55 57 63 38 38 29 26 22 18 19 13 24 26 36 42 54 64 68 30 35 79 77 35 78 51 75 49 43 41 71 48 47 53 53 72 69 69 87 82 84 87 83
34 29 46 41 46 52 55 37 33 29 20 19 18 15 21 28 31 27 19 55 60 63 32 74 78 77 34 75 77 78 74 76 84 45 49 54 57 63 87 87 76 86 79 62 55
43 26 29 30 33 37 40 44 48 40 22 23 22 11 14 17 20 23 35 42 47 45 58 57 57 36 73 37 48 40 53 45 64 56 80 79 80 85 84 85 72 62 52 47 46
30 32 25 33 34 25 25 29 33 35 35 39 7 14 9 9 16 20 22 29 31 33 47 52 35 51 35 67 58 62 45 44 64 70 70 72 78 71 63 56 50 49 45 35 29
21 29 27 17 26 17 30 21 18 21 22 23 25 25 25 24 9 10 28 29 30 28 28 39 38 46 48 50 53 55 59 60 63 61 60 54 48 48 45 37 35 39 33 36 41
30 24 17 12 23 10 20 16 10 13 10 9 10 10 10 9 8 8 10 7 7 23 27 37 41 41 48 43 50 49 45 41 37 35 37 32 42 41 37 42 48 47 47 48 49
25 17 18 22 23 9 20 3 5 8 3 2 4 4 4 6 7 8 9 10 10 12 13 15 17 20 22 26 29 32 33 35 37 39 40 49 47 47 43 51 51 52 51 53 54
25 22 23 23 16 12 16 15 18 10 7 7 13 14 12 15 15 16 18 20 22 24 26 28 29 32 34 36 38 42 42 41 45 47 48 53 53 54 50 53 56 58 59 57 56
26 25 20 20 23 22 20 17 22 22 22 19 15 18 15 24 17 19 21 28 27 33 36 36 37 39 42 42 46 51 47 46 51 53 53 55 60 60 65 61 59 59 64 64 64
26 25 25 30 23 24 26 23 26 23 21 22 29 29 26 25 26 33 35 37 35 35 35 37 45 46 49 45 49 58 57 55 57 59 58 60 63 69 69 67 68 65 66 67 69
Wind_Direction
357 320 283 280 276 262 267 247 236 228 228 225 227 216 216 222 219 224 224 224 211 211 211 206 211 218 216 217 239 237 231 236 244 233 243 248 251 253 255 259 261 234 260 269 271
9 357 351 317 299 317 263 226 210 214 207 214 221 219 213 216 220 222 222 221 220 213 217 214 213 219 223 223 233 242 239 237 240 227 249 251 251 254 257 258 267 262 265 268 256
21 1 2 6 357 335 225 214 166 173 192 192 204 217 212 212 221 217 216 216 221 210 216 223 227 220 224 234 223 222 249 228 237 243 232 252 255 257 255 262 248 248 258 263 278
16 25 4 7 19 3 137 132 142 159 180 183 179 214 214 212 209 210 216 211 221 220 213 221 219 221 225 224 223 218 226 225 223 226 231 247 241 256 238 264 263 265 269 273 251
11 29 23 15 11 8 154 141 151 160 143 149 179 197 206 211 211 209 214 215 214 213 224 220 225 225 229 223 223 236 222 249 230 232 234 235 242 242 256 241 245 249 255 266 250
359 22 10 32 11 31 149 141 120 138 146 158 180 199 207 206 206 210 214 203 218 219 225 227 229 228 230 227 231 232 226 235 230 241 238 264 242 246 245 242 257 249 263 256 260
9 36 25 34 32 179 132 127 131 145 159 169 187 186 204 204 206 206 210 211 212 219 223 227 231 231 227 228 230 233 230 231 236 235 239 239 244 250 246 247 247 247 252 251 279
50 44 38 32 50 78 131 145 147 155 165 173 191 187 192 199 204 206 209 214 213 204 222 227 221 231 235 239 229 235 233 232 232 238 238 240 241 253 253 259 258 253 257 285 264
42 43 47 37 46 65 116 144 151 155 169 197 192 193 202 195 201 205 209 215 214 220 225 228 231 234 233 241 244 248 251 254 245 242 241 244 251 251 249 267 253 252 255 276 265
32 40 51 56 49 61 80 121 169 166 169 174 180 185 191 194 190 203 206 209 217 217 224 226 230 237 238 240 244 248 251 247 257 261 258 271 272 280 276 265 275 288 276 268 258
46 49 55 64 77 73 80 102 120 171 178 175 188 180 187 187 191 193 204 210 212 216 222 225 233 235 239 241 244 247 248 250 254 267 265 262 268 280 267 283 264 293 280 278 276
46 50 59 63 67 78 81 85 98 127 162 191 215 191 182 180 187 193 200 203 212 218 219 228 230 235 242 243 248 254 255 256 257 266 269 270 274 278 281 268 262 269 292 272 293
44 47 60 74 82 81 78 83 103 115 140 177 163 177 178 185 170 179 201 206 212 215 223 224 229 236 241 245 249 250 259 260 266 270 270 274 277 276 272 268 273 273 286 276 296
37 50 49 51 82 75 77 77 90 102 104 119 146 157 163 178 170 182 204 203 208 219 222 225 231 232 237 244 250 252 260 262 266 271 271 268 269 274 284 272 289 291 275 282 302
35 40 36 56 50 76 84 77 77 76 99 114 130 146 147 199 179 189 192 208 208 216 222 226 232 213 236 244 230 259 238 263 265 255 269 272 275 271 280 288 282 294 295 300 279
35 37 41 44 51 65 67 64 73 70 89 87 114 127 150 178 187 186 190 197 208 214 224 228 228 233 243 244 247 252 258 262 250 260 271 264 264 278 273 285 288 286 297 296 299
34 39 40 43 50 50 103 70 59 85 70 103 97 138 146 172 203 187 188 198 199 215 221 229 236 239 242 247 248 255 256 249 259 266 258 274 273 270 280 282 280 292 294 295 296
35 37 41 43 47 50 61 61 69 77 77 176 160 197 141 159 171 183 189 199 206 229 234 228 236 243 243 253 247 256 254 255 266 256 261 274 268 281 284 282 287 289 291 293 293
28 29 42 41 45 49 51 64 61 69 73 93 158 166 199 169 175 213 242 201 207 214 232 226 232 236 249 246 249 255 260 263 261 261 264 269 270 275 281 283 284 288 290 293 286
19 32 37 35 42 50 51 54 55 61 76 77 74 138 147 192 206 202 198 205 210 218 219 228 232 255 242 260 248 255 257 258 267 263 271 273 275 276 277 281 287 287 287 285 287
11 28 37 37 43 39 53 59 57 59 62 61 160 89 130 132 246 214 208 215 224 227 228 231 245 243 256 248 254 258 263 267 267 271 271 269 272 280 282 283 284 289 291 290 271
346 14 11 29 35 32 41 38 51 64 67 60 64 66 64 76 190 210 247 252 254 257 261 245 253 253 252 254 257 258 261 263 265 276 279 280 269 271 277 274 272 275 271 273 279
360 359 6 330 6 36 32 53 38 30 38 57 82 86 76 72 82 76 61 92 136 242 247 256 253 256 260 260 264 267 268 270 263 257 261 263 259 267 267 273 277 279 281 281 279
350 332 354 355 358 318 3 37 314 25 25 321 314 282 283 231 212 208 220 237 256 254 266 271 267 262 257 257 259 259 259 260 261 263 269 270 277 271 276 277 281 281 280 280 281
339 339 345 319 349 323 297 307 340 252 245 312 260 256 251 249 257 261 257 255 251 250 250 251 253 256 259 262 264 264 263 264 264 264 265 271 269 278 262 265 269 273 274 276 277
342 335 330 328 322 328 330 322 291 284 280 309 255 241 278 260 257 250 250 252 254 255 258 259 262 261 261 263 264 265 264 263 263 266 268 271 272 272 273 273 270 270 275 274 276
318 336 336 309 318 315 318 315 296 301 300 292 278 277 278 267 273 257 254 257 253 270 257 258 259 260 259 256 259 265 268 265 265 266 265 263 267 270 269 274 274 271 272 271 269